{"data":{"norad_id":60427,"epoch":"2026-09-21T14:09:36.358560Z","epoch_age_seconds":91380,"freshness":"FRESH","line1":"1 60427U 24144C   26264.59000415 -.00007586  00000+0 -21348-3 0  9996","line2":"2 60427  53.1614  24.2736 0001366  92.5887 267.5272 15.34417484119384","mean_motion":15.34417484,"eccentricity":0.0001366,"inclination_deg":53.1614,"raan_deg":24.2736,"arg_perigee_deg":92.5887,"mean_anomaly_deg":267.5272,"bstar":-0.00021348,"rev_number":11938,"period_min":93.846688728164,"perigee_km":461.71682288965,"apogee_km":463.58572624627,"semimajor_km":6840.788274568,"source":"CELESTRAK","updated_at":"2026-09-22T09:00:49.233716Z"}}